ASIASAT 8

导读

ASIASAT 8(亚洲八号卫星)是亚洲卫星系列的通信卫星,于北京时间2014年8月5日由ASTC相关方安排,在卡纳维拉尔角太空军基地通过猎鹰9号v1.1火箭发射升空。卫星定位于地球静止轨道,总质量约4535千克,设计服役寿命15年,主要为亚太区域提供广播电视传输、宽带通信等服务,是亚洲卫星网络布局的重要组成部分。

基本信息
目录编号:
40107
目录名称:
ASIASAT 8
国际标识:
2014-046A
轨道中心:
EARTH
卫星名称:
ASIASAT 8
卫星全名:
--
卫星状态:
在轨 (已飞行4423 天)
发射日期:
2014-08-05 UTC
国别 :
(ASTC)
星等 :
--
该卫星已列入 空间交会检测服务 Space Conjunction Data Service (SCDS) ,当前飞行风险评估等级: 无高风险
轨道信息
数据来源 国际轨道数据 AOE轨道数据
星历时间 2026-09-14T01:46:35+0800
7小时前
查看轨道信息
2026-09-13T02:00:00+0800
1天前
查看轨道信息
半长轴 42166.523km 42165.653km
偏心率 0.0001545 0.0001428
轨道倾角 0.019° 0.004°
近地点辐角 351.878° 307.979°
升交点赤经 176.936° 208.225°
平近点角 195.822° 210.824°
近地点 35781.871km 35781.494km
远地点 35794.901km 35793.538km
周期 1436.188分钟 1436.144分钟
每日圈数 1.002654 1.002685
详细信息
使用方式:
暂无
2D轨道图
3D轨道图
轨道高度分析图
轨道倾角分析图
轨道综合分析图
查看轨道综合分析图
与全量物体交会距离演化趋势
与全量物体交会风险概率演化趋势